www.pogodaiklimat.ru

Погода и климат >> Архив погоды >> Россия >> Волгоградская область >> Калач-на-Дону


ПОГОДА в Калаче-на-Дону

  • Прогноз погоды в Калаче-на-Дону
  • Монитор погоды в Калаче-на-Дону
  • Климат города

АРХИВ ПОГОДЫ в Калаче-на-Дону

Время (UTC), дата Ветер
(напр.,м/с)
 
Видим.   Явления Облачность Т
(С)
Тd
(С)
f
(%)
Тe
(С)
Тes
(С)
Комфортность P
(гПа)
Po
(гПа)
Тmin
(С)
Tmax
(С)
R
(мм)
R24
(мм)
S
(см)
03 14.05 СЗ 1 20 км 9/9 600 м
[Cb cap]
+15.6 +9.1 65 +16 +16 1018.4 1013.8 +15.1 0.3
06 14.05 В 3 20 км 10/10 600 м
[Cb cap]
+21.3 +10.3 49 +23 +23 комфорт 1018.5 1014.1
09 14.05 ЮВ 5
{12}
20 км 8/5 600 м
[Cb cap Ac trans]
+27.2 +6.0 26 +26 +29 жарко 1018.0 1013.6
12 14.05 ЮВ 4
{11}
20 км 8/6 600 м
[Cb cap Ac trans]
+28.2 +6.5 25 +27 +29 жарко 1017.8 1013.5
15 14.05 В 3
{10}
20 км 3/0
[Ac trans]
+27.4 +6.0 26 +27 +28 жарко 1017.2 1012.8 +28.6
18 14.05 В 2 10 км 3/0
[Ac trans]
+22.1 +2.9 28 +22 +22 комфорт 1018.8 1014.3
21 14.05 ЮВ 1 10 км ясно +17.9 +1.7 34 +19 +19 1018.8 1014.3
00 15.05 штиль 0 10 км ясно +15.7 +4.4 47 +16 +16 1019.9 1015.3
03 15.05 СЗ 1 20 км 9/9 600 м
[]
+16.4 +3.9 43 +17 +18 1020.0 1015.5 +12.0
06 15.05 В 4 20 км ясно +24.9 +4.1 26 +24 +31 комфорт 1019.7 1015.3
09 15.05 ЮВ 3 20 км 3/0
[Ci fib]
+28.1 -1.4 15 +26 +39 жарко 1019.8 1015.4
12 15.05 ЮВ 2 20 км 4/0
[Ci]
+29.0 +0.4 16 +27 +37 жарко 1019.2 1014.8
15 15.05 В 3 20 км 10/0
[Cs]
+27.7 -1.9 14 +25 +26 комфорт 1018.4 1014.0 +29.4
18 15.05 З 1 10 км 10/0
[Cs]
+17.6 +9.8 60 +19 +19 1019.3 1014.8
21 15.05 штиль 0 10 км ясно +14.9 +9.3 69 +15 +15 1019.4 1014.9
00 16.05 штиль 0 10 км ясно +12.3 +7.3 72 +12 +12 1019.6 1015.0
03 16.05 штиль 0 20 км 8/0
[Ac lent Ci]
+14.9 +8.8 67 +15 +16 1019.9 1015.3 +10.9
06 16.05 ЮЗ 1 20 км 3/0
[Ci fib]
+24.1 +6.4 32 +24 +36 комфорт 1019.9 1015.5
09 16.05 Ю 2 20 км 10/0
[Cs]
+29.6 +2.4 18 +27 +41 жарко 1019.5 1015.1
12 16.05 Ю 2 20 км 10/3 1000 м
[Cu hum Cs]
+29.9 +3.6 19 +28 +34 жарко 1018.3 1014.0
15 16.05 штиль 0 20 км 10/0
[Cs]
+28.8 +9.0 29 +29 +30 жарко 1017.6 1013.2 +30.7
18 16.05 СЗ 1 10 км 10/0
[Ac trans Cs]
+21.7 +9.0 44 +23 +23 комфорт 1018.8 1014.3
21 16.05 штиль 0 10 км 8/0
[Ac trans Ci fib]
+16.1 +10.5 69 +16 +16 1018.8 1014.2
00 17.05 СВ 1 10 км 10/0
[Ac und]
+15.2 +9.6 69 +16 +16 1018.7 1014.1
03 17.05 штиль 0 20 км 8/0
[Ac trans]
+16.5 +11.2 71 +16 +17 1018.7 1014.2 +14.7
06 17.05 З 1 20 км в посл. час ливневой дождь 8/4 600 м
[Cb cap Ac As]
+21.4 +14.6 65 +24 +28 комфорт 1019.0 1014.5
09 17.05 штиль 0 20 км 9/4 600 м
[Cb cap Ac As]
+26.3 +12.8 43 +28 +34 жарко 1018.7 1014.3
12 17.05 Ю 2 20 км 6/6 1000 м
[Cu med, cong]
+31.1 +2.8 17 +29 +33 жарко 1017.2 1012.9
15 17.05 З 1 20 км 3/1 1000 м
[Cu med, cong Ci fib]
+30.9 +3.1 17 +28 +30 жарко 1016.0 1011.7 +32.1 0.0
18 17.05 штиль 0 10 км 3/0
[Ci fib]
+17.9 +13.0 73 +18 +18 1016.6 1012.1
21 17.05 штиль 0 10 км ясно +14.9 +10.2 73 +15 +15 1016.4 1011.8
00 18.05 штиль 0 10 км ясно +12.6 +8.9 78 +12 +12 1015.7 1011.1
03 18.05 штиль 0 20 км ясно +16.9 +10.4 66 +17 +19 1015.4 1010.9 +11.5
06 18.05 Ю 2 20 км 1/0
[Ci fib]
+25.1 +11.4 42 +26 +37 жарко 1014.9 1010.5
09 18.05 Ю 3 20 км 9/5 600 м
[Cb cap Ci fib]
+31.0 +7.2 23 +30 +36 жарко 1014.2 1009.9
12 18.05 З 4
{11}
20 км 10/5 600 м
[Cb cap Ac trans Ci fib]
+30.1 +4.3 19 +28 +30 жарко 1013.2 1008.9
15 18.05 ЮЗ 3
{12}
20 км 9/1 600 м
[Cb cap Ac trans Ci fib]
+28.6 +4.0 21 +27 +28 жарко 1012.2 1007.9 +31.6
18 18.05 штиль 0 10 км 9/0
[Ac trans]
+21.1 +14.5 66 +24 +24 комфорт 1012.5 1008.1
21 18.05 З 2 10 км 8/0
[Ac trans]
+21.5 +13.4 60 +24 +24 комфорт 1013.3 1008.9
00 19.05 ЮВ 1
{12}
10 км 9/0
[Ac trans]
+18.6 +12.0 65 +20 +20 1013.7 1009.2
03 19.05 ЮЗ 2 20 км 3/0
[Ac trans]
+17.7 +13.3 75 +18 +19 1014.2 1009.7 +17.3
06 19.05 ЮЗ 3 20 км 1/0
[Ac trans]
+23.7 +11.3 46 +25 +34 комфорт 1014.0 1009.6
09 19.05 ЮЗ 3 20 км 4/4 600 м
[Cb cap]
+26.8 +11.7 39 +28 +37 жарко 1013.7 1009.4
12 19.05 Ю 4 20 км 8/8 600 м
[Cb cap]
+26.8 +10.4 36 +28 +29 жарко 1012.8 1008.5
15 19.05 ЮЗ 2 20 км 10/10 600 м
[Cb cap]
+25.1 +11.6 43 +27 +27 жарко 1012.7 1008.3 +27.8
18 19.05 З 2 10 км 3/3 600 м
[Cb cap]
+22.4 +10.8 48 +24 +24 комфорт 1013.7 1009.3
21 19.05 штиль 0 10 км 3/0
[Ac trans]
+17.7 +11.2 66 +18 +18 1014.1 1009.6
00 20.05 СВ 1 10 км 3/0
[Ac trans]
+13.5 +10.7 83 +14 +14 1014.5 1010.0
03 20.05 штиль 0 20 км 8/0
[Ac trans]
+15.7 +11.5 76 +16 +17 1014.8 1010.3 +13.2
06 20.05 Ю 3 20 км 10/0
[Ac lent Cs]
+23.0 +12.8 53 +26 +30 жарко 1015.5 1011.0
09 20.05 ЮЗ 2 20 км 8/3 1000 м
[Cu med, cong Ac lent]
+27.3 +8.7 31 +27 +32 жарко 1015.0 1010.6
12 20.05 З 3 20 км 4/3 1000 м
[Cu med, cong Ci]
+29.1 +7.0 25 +28 +35 жарко 1014.1 1009.7
15 20.05 З 1 20 км 3/3 1000 м
[Cu med, cong]
+29.0 +7.7 26 +28 +30 жарко 1013.0 1008.6 +29.9
18 20.05 штиль 0 10 км 8/3 600 м
[Cb cap Ac lent]
+19.2 +12.8 66 +20 +20 1014.2 1009.7
21 20.05 штиль 0 10 км 4/4 600 м
[Cb cap]
+17.6 +13.1 75 +18 +18 1013.7 1009.2

 

Местоположение метеостанции Калач-на-Дону (Волгоградская область, Россия): широта 48.68 долгота 43.48 высота над уровнем моря 38 м.

В архиве по умолчанию представлена погода в Калаче-на-Дону за последнюю неделю. Архивные данные за месяц целиком и за предыдущие месяцы, начиная с января 2011 года, Вы можете получить, выбрав интересующий диапазон дат из раскрывающегося списка и нажав кнопку "Ввод!".


*Определитесь, кто Вы:
робот инопланетянин человек

Внимание! Время в таблицах - всемирное. Для получения местного времени необходимо прибавить поправку, которая в Калаче-на-Дону равна 3 ч.

Смотрите также архив погоды в соседних городах и на ближайших метеорологических станциях:

Погода в Нижнем Чире (Волгоградская область, Россия) (47 км)
Погода в Волгограде (Волгоградская область, Россия) (66 км)
Погода в Волгограде город (Волгоградская область, Россия) (71 км)
Погода в Иловле (Волгоградская область, Россия) (79 км)
Погода в Серафимовиче (Волгоградская область, Россия) (113 км)
Погода в Котельниково (Волгоградская область, Россия) (119 км)
Погода в Малых Дербетах (Калмыкия, Россия) (123 км)
Погода в Морозовске (Ростовская область, Россия) (124 км)
Погода в Фролове (Волгоградская область, Россия) (125 км)
Погода в Боковской (Ростовская область, Россия) (135 км)

Пояснения к столбцам:

Ветер - указаны скорость ветра в м/с - средняя за 10 мин, порывы в срок и между сроками (в фигурных скобках) и направление, откуда дует ветер: С - северный, СВ - северо-восточный, В - восточный, ЮВ - юго-восточный, Ю - южный, ЮЗ - юго-западный, З - западный, СЗ - северо-западный.
Видимость - горизонтальная дальность видимости в метрах или километрах. При видимости от 1 до 10 км при отсутствии осадков обычно наблюдается дымка, при ухудшении видимости до 1 км и менее - туман. В сухую погоду видимость может ухудшаться дымом, пылью или мглою.
Явления - указаны атмосферные явления, наблюдавшиеся в срок или в последний час перед сроком; фигурными скобками обозначены явления, наблюдавшиеся между сроками (за 1-3 часа до срока); квадратными скобками обозначены град или гололедные отложения с указанием их диаметра в мм.
Облачность - указаны через наклонную черту общая и нижняя облачность в баллах и высота нижней границы облаков в метрах; квадратными скобками обозначены формы облаков: Ci - перистые, Cs - перисто-слоистые, Cc - перисто-кучевые, Ac - высококучевые, As - высокослоистые, Sc - слоисто-кучевые, Ns - слоисто-дождевые, Cu - кучевые, Cb - кучево-дождевые. Подробнее классификацию облаков см. в Атласе облаков (PDF).
T - Температура воздуха - температура, измеренная на высоте 2 м над землей.
Td - Температура точки росы - температура, при понижении до которой содержащийся в воздухе водяной пар достигнет насыщения.
f - Относительная влажность воздуха - влажноcть воздуха, измеренная на высоте 2 м над землей.
Te - Эффективная температура - температура, которую ощущает одетый по сезону человек в тени. Характеристика душности погоды. При расчете учитывается влияние влажности воздуха и скорости ветра на теплоощущения человека.
Tes - Эффективная температура на солнце - температура, которую ощущает человек, с поправкой на солнечный нагрев. Характеристика знойности погоды. Зависит от высоты солнца над горизонтом, облачности и скорости ветра. Ночью, в пасмурную погоду, а также при ветре 12 м/с и более поправка равна нулю.
P - Атмосферное давление - приведенное к уровню моря атмосферное давление.
Po - Атмосферное давление - измеренное на уровне метеостанции атмосферное давление.
Tmin - Минимальная температура - минимум температуры воздуха на высоте 2 м над землей.
Tmax - Максимальная температура - максимум температуры воздуха на высоте 2 м над землей.
R - Количество осадков - Количество выпавших осадков за период времени, мм. При наведении курсора мыши на число - период времени, за который выпало указанное количество осадков.
R24 - Количество осадков - Количество выпавших осадков за 24 часа, мм.
S - Снежный покров - Высота снежного покрова, см. При наведении курсора мыши на число - состояние снежного покрова и степень покрытия местности в баллах.